{"data":{"norad_id":56154,"epoch":"2026-09-21T13:32:55.160448Z","epoch_age_seconds":95164,"freshness":"FRESH","line1":"1 56154U 23047B   26264.56452732  .00001081  00000+0  62650-4 0  9993","line2":"2 56154  97.5003  90.3192 0001483 112.1324 248.0066 15.14290171192381","mean_motion":15.14290171,"eccentricity":0.0001483,"inclination_deg":97.5003,"raan_deg":90.3192,"arg_perigee_deg":112.1324,"mean_anomaly_deg":248.0066,"bstar":6.265e-5,"rev_number":19238,"period_min":95.094059750058,"perigee_km":522.11092335199,"apogee_km":524.15784044387,"semimajor_km":6901.2713818979,"source":"CELESTRAK","updated_at":"2026-09-22T09:00:25.702238Z"}}